Location: *
(49.7115°N, 15.0136°E)
Time: 05:12:57
(UTC+00:00)

STARLINK-1065 - Pass Details

Date: 27 February 2020
Orbit: 547 x 551 km, 53.0° (Epoch: 31 March)

Event Time Altitude Azimuth Distance (km) Brightness Sun altitude
Rises 18:00:49 0° 232° (SW) 2,705 7.9 -14.1°
Reaches altitude 10° 18:03:03 10° 228° (SW) 1,815 6.9 -14.5°
Maximum altitude 18:07:07 59° 149° (SSE) 638 3.7 -15.1°
Enters shadow 18:09:04 28° 81° (E) 1,042 4.5 -15.4°
